SCP
0 0 0 0 0 0 0 0 0 0 0 0 0 -0 -0 -0 0 0 0 0 0 0 0 0 0 0 0 0 0 0 0 0 0 0 0 0 0 0 0 0 0 0 0 0 0 0 0 0 0 0 0 0 0 0
0 0 0 0 0 0 0 0 0 0 0 0 0 0 0 0 0 0 0 0 0 0 0 0 0 0 0 0 0 0 0 0 0 0 0 0 0 0 0 0 0 0 0 0 0 0 0 0 0 0 0 0 0 0
0 0 0 0 0 0 0 0 0 0 0 0 0 0 0 0 0 0 0 0 0 0 0 0 0 0 0 0 0 0 0 0 0 0 0 0 0 0 0 0 0 0 0 0 0 0 0 0 0 0 0 0 0 0
0 0 0 0 0 0 0 0 0 0 0 0 0 0 0 0 0 0 0 0 0 0 0 0 0 0 0 0 0 0 0 0 0 0 0 0 0 0 0 0 0 0 0 0 0 0 0 0 0 0 0 0 0 0
0 0 0 0 0 0 0 0 0 0 0 0 0 0 0 0 0 0 0 0 0 0 0 0 0 0 0 0 0 0 0 0 0 0 0 0 0 0 0 0 0 0 0 0 0 0 0 0 0 0 0 0 0 0
0 0 0 0 0 0 0 0 0 0 0 0 0 0 0 0 0 0 0 0 0 0 0 0 0 0 0 0 0 0 0 0 0 0 0 0 0 0 0 0 0 0 0 0 0 0 0 0 0 0 0 0 0 0
0 0 0 0 0 0 0 0 0 0 0 0 0 0 0 0 0 0 0 0 0 0 0 0 0 0 0 0 0 0 0 0 0 0 0 0 0 0 0 0 0 0 0 0 0 0 0 0 0 0 0 0 0 0
0 0 0 0 0 0 0 0 0 0 0 0 0 0 0 0 0 0 0 0 0 0 0 0 0 0 0 0 0 0 0 0 0 0 0 0 0 0 0 0 0 0 0 0 0 0 0 0 0 0 0 0 0 0
0 0 0 0 0 0 0 0 0 0 0 0 0 0 0 0 0 0 0 0 0 0 0 0 0 0 0 0 0 0 0 0 0 0 0 0 0 0 0 0 0 0 0 0 0 0 0 0 0 0 0 0 0 0
0 0 0 -0 0 0 0 0 0 0 0 0 0 0 0 0 0 0 0 0 0 0 0 0 0 0 0 0 0 0 0 0 0 0 0 0 0 0 0 0 0 0 0 0 0 0 0 0 0 0 0 0 0 0
0 0 0 0 0 0 0 0 0 0 0 0 0 0 0 0 0 0 0 0 0 0 0 0 0 0 0 0 0 0 0 0 0 0 0 0 0 0 0 0 0 0 0 0 0 0 0 0 0 0 0 0 0 0
0 0 0 0 0 0 0 0 0 0 0 0 0 0 0 0 0 0 0 0 0 0 0 0 0 0 0 0 0 0 0 0 0 0 0 0 0 0 0 0 0 0 0 0 0 0 0 0 0 0 0 0 0 0
0 0 0 0 0 0 0 0 0 0 0 0 0 0 0 0 0 0 0 0 0 0 0 0 0 0 0 0 0 0 0 0 0 0 0 0 0 0 0 0 0 0 0 0 0 0 0 0 0 0 0 0 0 0
0 0 0 0 0 0 0 0 0 0 0 0 0 0 0 0 0 0 0 0 0 0 0 0 0 0 0 0 0 0 0 0 0 0 0 0 0 0 0 0 0 0 0 0 0 0 0 0 0 0 0 0 0 0
0 0 0 0 0 0 0 0 0 0 0 0 0 0 0 0 0 0 0 0 0 0 0 0 0 0 0 0 0 0 0 0 0 0 0 0 0 0 0 0 0 0 0 0 0 0 0 0 0 0 0 0 0 0
0 0 0 0 0 0 0 0 0 0 0 0 0 0 0 0 0 0 0 0 0 0 0 0 0 0 0 0 0 0 0 0 0 0 0 0 0 0 0 0 0 0 0 0 0 0 0 0 0 0 0 0 0 0
0 0 0 0 0 0 0 0 0 0 0 0 0 0 0 0 0 0 0 0 0 0 0 0 0 0 0 0 0 0 0 0 0 0 0 0 0 0 0 0 0 0 0 0 0 0 0 0 0 0 0 0 0 0
0 0 0 0 0 0 0 0 0 0 0 0 0 0 0 0 0 0 0 0 0 0 0 0 0 0 0 0 0 0 0 0 0 0 0 0 0 0 0 0 0 0 0 0 0 0 0 0 0 0 0 0 0 0
0 0 0 0 0 0 0 0 0 0 0 0 0 0 0 0 0 0 0 0 0 0 0 0 0 0 0 0 0 0 0 0 0 0 0 0 0 0 0 0 0 0 0 0 0 0 0 0 0 0 0 0 0 0
0 0 0 0 0 0 0 0 0 0 0 0 0 0 0 0 0 0 0 0 0 0 0 0 0 0 0 0 0 0 0 0 0 0 0 0 0 0 0 0 0 0 0 0 0 0 0 0 0 0 0 0 0 0
0 0 0 0 0 0 0 0 0 0 0 0 0 0 0 0 0 0 0 0 0 0 0 0 0 0 0 0 0 0 0 0 0 0 0 0 0 0 0 0 0 0 0 0 0 0 0 0 0 0 0 0 0 0
0 0 0 0 0 0 0 0 0 0 0 0 0 0 0 0 0 0 0 0 0 0 0 0 0 0 0 0 0 0 0 0 0 0 0 0 0 0 0 0 0 0 0 0 0 0 0 0 0 0 0 0 0 0
0 0 0 0 0 0 0 0 0 0 0 0 0 0 0 0 0 0 0 0 0 0 0 0 0 0 0 0 0 0 0 0 0 0 0 0 0 0 0 0 0 0 0 0 0 0 0 0 0 0 0 0 0 0
-0 0 0 0 0 0 0 0 0 0 0 0 0 0 0 0 0 0 0 0 0 0 0 0 0 0 0 0 0 0 0 0 0 0 0 0 0 0 0 0 0 0 0 0 0 0 0 0 0 0 0 0 0 0
0 -0 0 0 0 0 0 0 0 0 0 0 0 0 0 0 0 0 0 0 0 0 0 0 0 0 0 0 0 0 0 0 0 0 0 0 0 0 0 0 0 0 0 0 0 0 0 0 0 0 0 0 0 0
-0 0 0 0 0 0 0 0 0 0 0 0 0 0 0 0 0 0 0 0 0 0 0 0 0 0 0 0 0 0 0 0 0 0 0 0 0 0 0 0 0 0 0 0 0 0 0 0 0 0 0 0 0 0
-0 0 0 0 0 0 0 0 0 0 0 0 0 0 0 0 0 0 0 0 0 0 0 0 0 0 0 0 0 0 0 0 0 0 0 0 0 0 0 0 0 0 0 0 0 0 0 0 0 0 0 0 0 0
0 0 0 0 0 0 0 0 0 0 0 0 0 0 0 0 0 0 0 0 0 0 0 0 0 0 0 0 0 0 0 0 0 0 0 0 0 0 0 0 0 0 0 0 0 0 0 0 0 0 0 0 0 0
0 0 0 0 0 0 0 0 0 0 0 0 0 0 0 0 0 0 0 0 0 0 0 0 0 0 0 0 0 0 0 0 0 0 0 0 0 0 0 0 0 0 0 0 0 0 0 0 0 0 0 0 0 0
0 0 0 0 0 0 0 0 0 0 0 0 0 0 0 0 0 0 0 0 0 0 0 0 0 0 0 0 0 0 0 0 0 0 0 0 0 0 0 0 0 0 0 0 0 0 0 0 0 0 0 0 0 0
0 0 0 0 0 0 0 0 0 0 0 0 0 0 0 0 0 0 0 0 0 0 0 0 0 0 0 0 0 0 0 0 0 0 0 0 0 0 0 0 0 0 0 0 0 0 0 0 0 0 0 0 0 0
0 0 0 0 0 0 0 0 0 0 0 0 0 0 0 0 0 0 0 0 0 0 0 0 0 0 0 0 0 0 0 0 0 0 0 0 0 0 0 0 0 0 0 0 0 0 0 0 0 0 0 0 0 0
0 0 0 0 0 0 0 0 0 0 0 0 0 0 0 0 0 0 0 0 0 0 0 0 0 0 0 0 0 0 0 0 0 0 0 0 0 0 0 0 0 0 0 0 0 0 0 0 0 0 0 0 0 0
Wind_Speed_500mb
66 65 67 59 58 57 58 50 45 51 49 50 43 41 40 46 43 38 35 33 34 11 13 13 11 10 15 19 10 20 11 0 5 6 7 8 6 13 4 4 13 14 14 9 5 5 15 25 11 14 11 13 12 19
67 62 63 64 56 57 57 56 60 53 48 55 43 44 51 43 46 46 41 37 36 23 8 18 28 20 23 29 34 49 11 14 21 7 1 6 3 2 7 7 2 4 14 12 22 14 10 43 20 53 38 25 30 35
67 69 59 70 60 56 59 59 55 60 57 55 52 48 48 45 51 54 52 39 38 30 26 38 37 27 36 29 29 23 12 20 19 12 17 6 6 7 7 8 5 9 15 8 9 10 18 30 49 39 38 47 47 46
65 64 61 63 69 60 48 55 61 66 57 54 54 50 51 49 48 55 57 52 54 14 9 14 25 31 41 44 43 41 28 38 23 26 9 6 7 18 7 7 10 20 18 10 8 19 31 35 48 56 62 66 64 58
68 69 64 59 59 61 60 49 45 43 46 49 49 55 48 48 57 53 56 59 52 34 8 5 16 31 35 57 52 49 48 44 45 15 4 6 12 8 2 3 11 28 15 9 13 43 34 37 52 55 53 52 50 47
66 64 62 61 64 62 57 64 66 45 40 41 42 44 43 47 43 44 31 58 59 49 14 4 15 30 36 47 64 70 59 45 37 18 8 10 10 20 7 8 53 52 53 66 46 69 57 68 68 69 64 64 63 60
56 60 59 58 58 63 58 55 60 57 58 48 36 33 36 35 43 42 10 14 45 70 17 4 7 20 43 50 59 57 59 44 31 17 18 16 14 28 6 25 16 36 58 71 72 67 54 71 54 67 62 58 58 54
42 48 57 55 57 57 55 55 55 49 48 51 46 42 39 34 34 38 45 13 40 46 18 7 6 4 30 21 16 30 25 38 30 23 13 12 19 16 16 6 38 69 80 65 78 71 72 72 69 62 60 58 56 56
34 40 52 54 66 55 50 47 42 39 48 50 43 37 34 35 28 29 37 31 30 31 6 7 8 9 28 11 18 19 24 8 18 14 12 22 9 15 18 28 51 74 71 72 62 60 63 65 65 61 57 55 54 49
21 43 35 35 44 52 51 49 44 39 41 42 46 24 17 24 27 22 23 20 29 20 26 6 15 5 25 11 8 11 11 6 6 7 20 9 13 74 50 49 61 76 82 67 54 56 53 55 55 52 46 39 38 38
6 10 18 41 45 48 47 42 36 34 40 46 22 16 21 35 35 22 15 16 16 10 19 26 43 10 25 7 6 16 6 7 8 9 15 9 9 43 70 77 101 104 89 68 59 59 56 50 40 38 38 38 37 37
13 11 12 27 31 33 34 36 38 45 27 28 23 23 25 17 15 12 11 6 9 13 14 12 22 37 26 18 7 14 9 7 10 13 9 7 18 64 67 77 80 79 80 68 60 53 47 42 36 33 35 35 32 32
16 18 19 20 22 25 28 33 40 37 44 26 12 13 15 14 12 10 20 6 6 8 23 19 5 25 15 17 6 9 15 13 16 9 9 11 35 62 63 60 67 63 57 49 46 43 37 31 28 26 25 23 23 23
25 25 22 22 19 20 26 29 34 40 36 14 13 10 9 8 10 9 10 10 12 20 46 35 12 8 14 10 7 10 7 7 10 10 14 14 55 57 42 54 57 54 45 41 38 34 28 23 20 17 15 14 15 18
9 13 15 22 26 24 25 33 39 43 18 8 11 10 10 9 1 2 7 9 12 18 38 14 7 14 6 8 7 7 7 8 11 12 9 13 22 32 41 44 43 42 41 37 31 25 21 17 14 11 10 10 12 15
11 13 10 11 20 25 25 27 42 35 15 15 9 4 2 4 7 2 3 5 10 29 20 9 7 8 9 7 10 12 14 14 10 7 6 7 13 17 26 31 35 37 33 29 24 20 16 14 11 8 6 9 12 14
7 11 9 2 6 24 34 33 17 12 13 14 3 10 8 2 4 12 8 4 7 19 5 4 9 13 2 4 6 7 10 6 2 0 0 6 12 22 28 30 32 31 29 26 22 20 15 10 7 5 6 8 10 10
11 11 7 3 6 12 24 25 13 5 6 5 5 4 8 6 6 7 15 15 14 8 5 2 4 7 7 11 7 1 5 3 6 6 5 6 13 23 29 32 32 27 25 23 20 16 12 8 4 2 3 3 3 4
8 11 8 4 7 9 9 2 3 7 5 5 7 8 3 3 5 7 11 15 17 12 9 6 5 4 0 5 3 5 3 3 6 12 21 22 22 22 23 26 27 27 24 20 17 14 11 8 6 5 3 3 1 1
16 22 13 10 16 9 6 6 5 8 4 6 8 6 5 3 3 4 2 8 8 5 5 6 5 5 7 7 8 6 6 8 11 14 13 20 23 25 25 24 24 23 21 19 16 14 13 12 11 10 8 4 0 3
25 18 7 9 9 5 8 6 9 8 8 7 9 6 5 6 4 5 8 9 11 11 5 11 10 11 8 6 7 5 2 6 12 6 8 23 27 26 26 26 24 22 19 18 16 16 15 13 10 7 4 1 1 2
14 12 11 11 6 8 11 11 10 9 6 7 5 6 7 4 8 11 9 18 11 12 13 15 15 15 11 7 7 4 3 3 4 7 11 20 32 30 28 24 23 23 24 21 18 14 12 10 8 6 4 2 1 3
19 14 9 8 7 9 6 7 5 6 6 2 4 5 4 4 6 8 10 11 11 25 25 18 15 13 11 7 7 6 3 2 2 6 13 22 20 21 24 25 24 18 16 16 14 13 11 9 8 6 3 2 2 3
12 9 13 11 17 4 4 8 6 6 7 5 4 5 4 5 10 8 7 8 19 31 21 18 18 13 10 6 4 4 6 8 10 14 16 16 22 27 25 21 18 17 14 11 9 10 11 10 7 4 3 4 4 4
8 20 15 13 15 9 9 7 8 6 6 5 4 5 4 10 5 8 5 14 33 34 29 22 19 14 11 7 5 8 12 15 14 16 21 20 16 17 16 14 12 11 10 10 10 12 10 8 6 6 6 6 8 10
15 18 12 9 11 8 7 5 8 6 5 6 6 7 7 5 9 6 4 21 27 32 29 21 21 15 15 11 10 13 14 15 14 12 13 13 12 10 8 8 8 6 7 11 13 12 11 10 9 9 10 11 14 18
11 9 14 16 8 6 4 7 6 7 9 9 6 10 6 9 8 5 16 20 34 27 15 11 12 14 15 14 12 11 10 8 7 5 6 6 5 6 7 7 8 10 11 10 12 13 12 12 13 14 15 17 19 25
10 20 8 22 11 15 5 6 8 8 6 12 3 12 7 6 3 17 14 27 23 15 14 15 13 13 13 12 10 7 6 4 0 2 3 3 4 5 6 7 8 9 9 10 11 12 14 15 18 21 25 29 29 29
11 28 13 7 7 14 14 9 5 7 12 6 4 6 5 10 17 19 22 22 18 15 13 15 16 12 10 9 9 7 5 4 3 2 2 2 3 2 1 1 3 6 8 11 13 16 20 23 27 32 35 39 41 42
16 28 10 10 9 9 10 11 8 15 23 27 35 46 41 45 59 48 36 32 28 27 23 18 16 12 11 8 9 9 8 7 5 3 3 3 5 8 9 12 13 16 18 21 23 26 30 35 38 41 45 47 48 49
20 17 6 12 8 9 12 18 21 21 22 24 29 23 18 14 40 54 49 43 40 35 31 29 24 20 13 9 5 2 2 6 7 7 9 12 15 17 20 22 24 27 29 33 36 39 42 45 47 49 51 52 52 53
21 14 6 6 4 10 10 6 6 8 7 7 8 9 9 9 10 33 50 33 37 42 45 42 36 30 23 14 5 7 13 17 20 23 24 27 29 31 33 34 37 39 41 42 43 46 48 52 55 56 58 59 60 60
5 10 11 7 4 5 13 8 3 7 7 6 8 17 16 9 11 16 47 40 27 30 34 39 45 39 24 28 25 28 33 35 38 41 43 45 46 47 48 46 48 50 51 54 56 56 57 59 62 63 65 66 67 68
Wind_Direction_500mb
250 252 244 246 241 233 233 237 226 224 221 215 207 205 209 211 210 214 223 213 210 214 247 216 196 158 139 156 136 156 110 176 70 126 146 186 152 215 134 190 176 158 157 190 132 210 274 187 117 168 202 180 226 246
245 240 237 241 243 234 232 232 234 234 232 218 217 221 215 200 205 211 214 208 206 217 261 234 237 206 212 211 176 167 175 155 161 106 186 108 176 76 157 224 173 224 194 183 186 203 219 187 207 215 231 244 252 250
244 234 233 231 242 238 235 234 229 228 233 232 228 231 228 227 214 212 217 208 207 222 255 258 243 224 224 216 218 161 196 167 181 154 156 174 188 122 158 241 141 253 174 210 88 222 225 208 222 228 233 260 268 267
241 238 233 227 231 236 230 232 237 228 231 231 228 227 228 222 220 214 219 222 204 166 206 247 235 230 223 217 216 216 222 195 189 178 165 153 163 188 198 167 181 210 162 155 249 258 252 248 246 251 262 268 272 270
238 236 232 231 225 230 231 231 230 229 228 226 225 226 225 221 225 217 220 226 226 204 194 265 243 244 232 212 215 215 218 203 178 165 136 211 157 127 232 136 242 211 215 211 232 249 237 250 265 264 264 266 272 266
242 224 227 226 225 230 228 228 228 224 224 225 226 230 227 215 211 210 219 233 225 224 217 204 247 224 219 212 217 221 221 205 194 189 186 215 178 172 166 217 243 241 241 244 242 257 260 264 267 269 272 268 273 271
237 218 220 223 224 227 220 220 218 222 228 225 221 218 214 219 215 216 205 223 219 217 200 198 263 203 206 211 219 222 223 208 205 198 210 181 173 190 199 241 230 246 254 257 255 257 260 261 253 267 269 272 274 270
231 223 220 220 221 218 218 220 218 211 213 217 214 212 218 217 224 230 238 159 184 182 183 186 244 183 193 184 192 199 190 198 211 215 212 190 171 201 238 220 243 253 258 256 258 256 255 264 269 266 268 268 263 264
225 230 219 230 208 209 209 205 207 210 211 200 203 203 199 208 211 225 229 234 253 207 207 154 158 216 170 142 169 169 183 189 200 209 208 169 175 218 219 208 232 247 245 248 259 262 258 256 262 265 264 262 258 258
279 225 209 213 188 193 194 196 194 198 201 207 198 177 169 200 189 170 181 199 211 209 205 196 181 183 172 140 154 136 179 197 190 228 154 212 228 241 238 239 243 254 257 250 239 246 248 251 254 254 253 250 248 250
241 189 193 197 188 195 194 189 191 192 188 185 188 159 147 157 161 180 198 197 186 194 198 195 186 146 182 140 169 195 178 180 191 223 184 193 244 243 243 242 248 255 259 257 253 255 258 258 254 248 241 242 247 253
212 200 188 168 172 177 184 185 184 186 187 173 151 137 155 181 190 196 182 181 176 205 188 165 193 191 166 166 135 173 178 184 214 141 167 211 244 246 244 244 247 251 255 251 251 246 240 245 243 236 235 237 242 249
169 169 169 174 177 178 182 185 186 193 196 182 162 163 171 175 203 227 176 232 172 175 177 165 171 162 139 179 163 179 194 205 114 179 212 221 241 247 249 247 245 243 241 235 226 225 224 224 226 229 232 236 245 252
201 175 178 177 182 183 188 188 184 193 181 172 166 191 189 216 213 185 185 183 206 180 178 165 130 151 165 177 174 195 182 135 194 193 222 232 238 249 242 234 230 223 217 217 213 210 210 213 216 221 229 240 252 264
158 170 183 200 200 195 201 197 186 190 174 189 184 212 202 217 196 84 179 161 174 189 163 137 119 151 186 193 191 110 163 211 204 218 225 263 265 248 229 217 214 209 204 199 196 196 195 200 204 214 228 242 261 277
132 160 167 234 224 214 205 214 201 202 184 178 223 180 37 82 328 62 98 115 135 165 151 153 171 210 214 186 154 200 166 203 228 213 246 265 246 228 220 213 204 194 184 178 179 179 184 181 187 202 241 274 289 293
130 121 73 154 208 221 207 210 201 187 195 174 209 162 164 351 154 166 119 118 162 163 211 169 176 213 100 229 233 173 203 215 32 347 159 186 208 191 189 182 172 165 159 155 162 165 167 173 188 222 257 275 288 299
75 93 135 217 174 182 179 197 182 156 82 64 118 121 158 177 194 195 168 172 165 210 141 279 339 194 199 176 195 299 39 39 89 146 157 153 163 159 151 158 156 157 156 155 150 155 160 166 181 235 257 312 316 338
284 269 252 237 161 152 159 171 79 99 81 91 102 105 160 180 200 230 249 228 209 195 173 161 209 197 195 39 11 24 40 296 226 144 139 141 152 149 149 155 152 147 144 148 152 155 155 157 150 153 144 155 172 5
184 243 239 208 189 167 128 84 91 97 125 113 117 109 102 76 147 163 131 174 164 138 61 33 44 24 31 358 330 332 328 267 206 163 158 154 154 150 152 151 149 152 157 157 157 158 157 154 161 162 160 158 61 352
208 232 229 203 158 114 100 89 74 82 101 97 105 95 58 80 58 62 71 47 65 36 53 35 28 12 11 1 6 22 12 169 176 205 230 178 169 165 162 160 161 163 164 161 160 161 163 162 171 172 166 166 299 318
194 203 169 163 107 83 81 62 86 100 101 101 82 69 55 40 24 23 23 57 51 23 2 349 350 358 8 21 32 47 107 182 260 260 207 185 177 173 173 171 167 165 160 159 159 168 172 173 177 177 172 181 281 328
118 125 89 69 92 58 46 71 78 47 80 20 77 75 39 34 20 44 73 64 59 358 354 1 5 9 18 34 52 52 53 79 160 156 148 155 163 164 165 159 156 164 170 170 169 175 180 181 185 178 185 255 292 314
98 62 40 44 32 56 50 40 55 71 73 43 56 94 31 330 357 67 75 50 1 6 16 18 10 11 16 19 36 63 94 106 124 137 136 150 158 153 153 161 164 168 175 177 181 188 184 179 183 198 232 260 273 284
88 12 21 11 18 21 35 23 11 50 61 2 72 50 15 348 67 51 52 359 1 10 12 15 14 12 4 1 50 104 115 110 115 128 126 130 144 153 162 168 176 185 190 193 196 194 188 195 213 234 251 269 281 294
68 10 35 349 6 35 351 40 31 27 17 58 33 340 356 46 59 45 353 348 357 351 354 2 11 33 47 64 94 111 113 118 123 126 137 148 155 166 184 198 197 198 210 207 200 205 216 231 251 264 271 283 296 303
53 347 8 25 0 329 55 41 40 45 48 27 353 354 24 61 51 344 346 352 347 352 9 27 43 63 69 78 92 104 104 109 115 143 167 185 200 218 225 229 234 238 227 220 217 224 237 253 265 274 281 286 295 301
67 26 28 340 30 31 66 48 36 33 8 348 307 33 70 39 339 333 332 341 356 31 60 51 61 72 78 84 80 92 112 105 132 228 198 208 231 244 249 247 242 236 232 233 240 249 256 264 275 284 290 297 302 303
31 354 354 0 64 53 41 28 43 25 352 6 48 68 75 32 10 17 22 26 39 56 58 60 64 62 64 69 66 88 86 66 48 327 283 179 118 77 116 264 278 270 263 264 269 275 280 285 289 292 296 299 303 307
2 1 3 28 46 36 7 25 42 58 71 85 99 109 95 71 55 54 53 54 55 55 53 53 47 48 47 45 45 49 58 61 65 100 175 207 256 279 277 275 276 278 280 281 283 284 286 288 290 292 295 298 299 300
353 351 52 49 76 41 57 83 86 84 87 98 114 112 105 96 55 42 47 54 57 58 55 48 41 35 33 39 61 61 38 25 12 348 319 302 298 294 292 291 290 289 289 289 290 290 290 290 291 293 294 296 298 300
6 27 35 63 45 47 51 56 72 86 93 73 68 100 95 85 72 24 21 33 40 43 40 34 28 29 30 27 7 321 319 316 316 312 307 303 300 299 299 297 296 294 293 291 289 288 287 289 291 293 295 296 298 299
14 28 48 71 58 43 9 20 109 107 86 91 77 85 80 78 93 45 31 20 15 13 12 11 10 2 332 327 315 292 287 291 295 293 290 289 288 288 290 295 292 289 290 292 292 293 293 294 294 294 295 296 297 299
Wind_Speed_850mb
66 65 67 59 58 57 58 50 45 51 49 50 43 41 40 46 43 38 35 33 34 11 13 13 11 10 15 19 10 20 11 0 5 6 7 8 6 13 4 4 13 14 14 9 5 5 15 25 11 14 11 13 12 19
67 62 63 64 56 57 57 56 60 53 48 55 43 44 51 43 46 46 41 37 36 23 8 18 28 20 23 29 34 49 11 14 21 7 1 6 3 2 7 7 2 4 14 12 22 14 10 43 20 53 38 25 30 35
67 69 59 70 60 56 59 59 55 60 57 55 52 48 48 45 51 54 52 39 38 30 26 38 37 27 36 29 29 23 12 20 19 12 17 6 6 7 7 8 5 9 15 8 9 10 18 30 49 39 38 47 47 46
65 64 61 63 69 60 48 55 61 66 57 54 54 50 51 49 48 55 57 52 54 14 9 14 25 31 41 44 43 41 28 38 23 26 9 6 7 18 7 7 10 20 18 10 8 19 31 35 48 56 62 66 64 58
68 69 64 59 59 61 60 49 45 43 46 49 49 55 48 48 57 53 56 59 52 34 8 5 16 31 35 57 52 49 48 44 45 15 4 6 12 8 2 3 11 28 15 9 13 43 34 37 52 55 53 52 50 47
66 64 62 61 64 62 57 64 66 45 40 41 42 44 43 47 43 44 31 58 59 49 14 4 15 30 36 47 64 70 59 45 37 18 8 10 10 20 7 8 53 52 53 66 46 69 57 68 68 69 64 64 63 60
56 60 59 58 58 63 58 55 60 57 58 48 36 33 36 35 43 42 10 14 45 70 17 4 7 20 43 50 59 57 59 44 31 17 18 16 14 28 6 25 16 36 58 71 72 67 54 71 54 67 62 58 58 54
42 48 57 55 57 57 55 55 55 49 48 51 46 42 39 34 34 38 45 13 40 46 18 7 6 4 30 21 16 30 25 38 30 23 13 12 19 16 16 6 38 69 80 65 78 71 72 72 69 62 60 58 56 56
34 40 52 54 66 55 50 47 42 39 48 50 43 37 34 35 28 29 37 31 30 31 6 7 8 9 28 11 18 19 24 8 18 14 12 22 9 15 18 28 51 74 71 72 62 60 63 65 65 61 57 55 54 49
21 43 35 35 44 52 51 49 44 39 41 42 46 24 17 24 27 22 23 20 29 20 26 6 15 5 25 11 8 11 11 6 6 7 20 9 13 74 50 49 61 76 82 67 54 56 53 55 55 52 46 39 38 38
6 10 18 41 45 48 47 42 36 34 40 46 22 16 21 35 35 22 15 16 16 10 19 26 43 10 25 7 6 16 6 7 8 9 15 9 9 43 70 77 101 104 89 68 59 59 56 50 40 38 38 38 37 37
13 11 12 27 31 33 34 36 38 45 27 28 23 23 25 17 15 12 11 6 9 13 14 12 22 37 26 18 7 14 9 7 10 13 9 7 18 64 67 77 80 79 80 68 60 53 47 42 36 33 35 35 32 32
16 18 19 20 22 25 28 33 40 37 44 26 12 13 15 14 12 10 20 6 6 8 23 19 5 25 15 17 6 9 15 13 16 9 9 11 35 62 63 60 67 63 57 49 46 43 37 31 28 26 25 23 23 23
25 25 22 22 19 20 26 29 34 40 36 14 13 10 9 8 10 9 10 10 12 20 46 35 12 8 14 10 7 10 7 7 10 10 14 14 55 57 42 54 57 54 45 41 38 34 28 23 20 17 15 14 15 18
9 13 15 22 26 24 25 33 39 43 18 8 11 10 10 9 1 2 7 9 12 18 38 14 7 14 6 8 7 7 7 8 11 12 9 13 22 32 41 44 43 42 41 37 31 25 21 17 14 11 10 10 12 15
11 13 10 11 20 25 25 27 42 35 15 15 9 4 2 4 7 2 3 5 10 29 20 9 7 8 9 7 10 12 14 14 10 7 6 7 13 17 26 31 35 37 33 29 24 20 16 14 11 8 6 9 12 14
7 11 9 2 6 24 34 33 17 12 13 14 3 10 8 2 4 12 8 4 7 19 5 4 9 13 2 4 6 7 10 6 2 0 0 6 12 22 28 30 32 31 29 26 22 20 15 10 7 5 6 8 10 10
11 11 7 3 6 12 24 25 13 5 6 5 5 4 8 6 6 7 15 15 14 8 5 2 4 7 7 11 7 1 5 3 6 6 5 6 13 23 29 32 32 27 25 23 20 16 12 8 4 2 3 3 3 4
8 11 8 4 7 9 9 2 3 7 5 5 7 8 3 3 5 7 11 15 17 12 9 6 5 4 0 5 3 5 3 3 6 12 21 22 22 22 23 26 27 27 24 20 17 14 11 8 6 5 3 3 1 1
16 22 13 10 16 9 6 6 5 8 4 6 8 6 5 3 3 4 2 8 8 5 5 6 5 5 7 7 8 6 6 8 11 14 13 20 23 25 25 24 24 23 21 19 16 14 13 12 11 10 8 4 0 3
25 18 7 9 9 5 8 6 9 8 8 7 9 6 5 6 4 5 8 9 11 11 5 11 10 11 8 6 7 5 2 6 12 6 8 23 27 26 26 26 24 22 19 18 16 16 15 13 10 7 4 1 1 2
14 12 11 11 6 8 11 11 10 9 6 7 5 6 7 4 8 11 9 18 11 12 13 15 15 15 11 7 7 4 3 3 4 7 11 20 32 30 28 24 23 23 24 21 18 14 12 10 8 6 4 2 1 3
19 14 9 8 7 9 6 7 5 6 6 2 4 5 4 4 6 8 10 11 11 25 25 18 15 13 11 7 7 6 3 2 2 6 13 22 20 21 24 25 24 18 16 16 14 13 11 9 8 6 3 2 2 3
12 9 13 11 17 4 4 8 6 6 7 5 4 5 4 5 10 8 7 8 19 31 21 18 18 13 10 6 4 4 6 8 10 14 16 16 22 27 25 21 18 17 14 11 9 10 11 10 7 4 3 4 4 4
8 20 15 13 15 9 9 7 8 6 6 5 4 5 4 10 5 8 5 14 33 34 29 22 19 14 11 7 5 8 12 15 14 16 21 20 16 17 16 14 12 11 10 10 10 12 10 8 6 6 6 6 8 10
15 18 12 9 11 8 7 5 8 6 5 6 6 7 7 5 9 6 4 21 27 32 29 21 21 15 15 11 10 13 14 15 14 12 13 13 12 10 8 8 8 6 7 11 13 12 11 10 9 9 10 11 14 18
11 9 14 16 8 6 4 7 6 7 9 9 6 10 6 9 8 5 16 20 34 27 15 11 12 14 15 14 12 11 10 8 7 5 6 6 5 6 7 7 8 10 11 10 12 13 12 12 13 14 15 17 19 25
10 20 8 22 11 15 5 6 8 8 6 12 3 12 7 6 3 17 14 27 23 15 14 15 13 13 13 12 10 7 6 4 0 2 3 3 4 5 6 7 8 9 9 10 11 12 14 15 18 21 25 29 29 29
11 28 13 7 7 14 14 9 5 7 12 6 4 6 5 10 17 19 22 22 18 15 13 15 16 12 10 9 9 7 5 4 3 2 2 2 3 2 1 1 3 6 8 11 13 16 20 23 27 32 35 39 41 42
16 28 10 10 9 9 10 11 8 15 23 27 35 46 41 45 59 48 36 32 28 27 23 18 16 12 11 8 9 9 8 7 5 3 3 3 5 8 9 12 13 16 18 21 23 26 30 35 38 41 45 47 48 49
20 17 6 12 8 9 12 18 21 21 22 24 29 23 18 14 40 54 49 43 40 35 31 29 24 20 13 9 5 2 2 6 7 7 9 12 15 17 20 22 24 27 29 33 36 39 42 45 47 49 51 52 52 53
21 14 6 6 4 10 10 6 6 8 7 7 8 9 9 9 10 33 50 33 37 42 45 42 36 30 23 14 5 7 13 17 20 23 24 27 29 31 33 34 37 39 41 42 43 46 48 52 55 56 58 59 60 60
5 10 11 7 4 5 13 8 3 7 7 6 8 17 16 9 11 16 47 40 27 30 34 39 45 39 24 28 25 28 33 35 38 41 43 45 46 47 48 46 48 50 51 54 56 56 57 59 62 63 65 66 67 68
Wind_Direction_850mb
250 252 244 246 241 233 233 237 226 224 221 215 207 205 209 211 210 214 223 213 210 214 247 216 196 158 139 156 136 156 110 176 70 126 146 186 152 215 134 190 176 158 157 190 132 210 274 187 117 168 202 180 226 246
245 240 237 241 243 234 232 232 234 234 232 218 217 221 215 200 205 211 214 208 206 217 261 234 237 206 212 211 176 167 175 155 161 106 186 108 176 76 157 224 173 224 194 183 186 203 219 187 207 215 231 244 252 250
244 234 233 231 242 238 235 234 229 228 233 232 228 231 228 227 214 212 217 208 207 222 255 258 243 224 224 216 218 161 196 167 181 154 156 174 188 122 158 241 141 253 174 210 88 222 225 208 222 228 233 260 268 267
241 238 233 227 231 236 230 232 237 228 231 231 228 227 228 222 220 214 219 222 204 166 206 247 235 230 223 217 216 216 222 195 189 178 165 153 163 188 198 167 181 210 162 155 249 258 252 248 246 251 262 268 272 270
238 236 232 231 225 230 231 231 230 229 228 226 225 226 225 221 225 217 220 226 226 204 194 265 243 244 232 212 215 215 218 203 178 165 136 211 157 127 232 136 242 211 215 211 232 249 237 250 265 264 264 266 272 266
242 224 227 226 225 230 228 228 228 224 224 225 226 230 227 215 211 210 219 233 225 224 217 204 247 224 219 212 217 221 221 205 194 189 186 215 178 172 166 217 243 241 241 244 242 257 260 264 267 269 272 268 273 271
237 218 220 223 224 227 220 220 218 222 228 225 221 218 214 219 215 216 205 223 219 217 200 198 263 203 206 211 219 222 223 208 205 198 210 181 173 190 199 241 230 246 254 257 255 257 260 261 253 267 269 272 274 270
231 223 220 220 221 218 218 220 218 211 213 217 214 212 218 217 224 230 238 159 184 182 183 186 244 183 193 184 192 199 190 198 211 215 212 190 171 201 238 220 243 253 258 256 258 256 255 264 269 266 268 268 263 264
225 230 219 230 208 209 209 205 207 210 211 200 203 203 199 208 211 225 229 234 253 207 207 154 158 216 170 142 169 169 183 189 200 209 208 169 175 218 219 208 232 247 245 248 259 262 258 256 262 265 264 262 258 258
279 225 209 213 188 193 194 196 194 198 201 207 198 177 169 200 189 170 181 199 211 209 205 196 181 183 172 140 154 136 179 197 190 228 154 212 228 241 238 239 243 254 257 250 239 246 248 251 254 254 253 250 248 250
241 189 193 197 188 195 194 189 191 192 188 185 188 159 147 157 161 180 198 197 186 194 198 195 186 146 182 140 169 195 178 180 191 223 184 193 244 243 243 242 248 255 259 257 253 255 258 258 254 248 241 242 247 253
212 200 188 168 172 177 184 185 184 186 187 173 151 137 155 181 190 196 182 181 176 205 188 165 193 191 166 166 135 173 178 184 214 141 167 211 244 246 244 244 247 251 255 251 251 246 240 245 243 236 235 237 242 249
169 169 169 174 177 178 182 185 186 193 196 182 162 163 171 175 203 227 176 232 172 175 177 165 171 162 139 179 163 179 194 205 114 179 212 221 241 247 249 247 245 243 241 235 226 225 224 224 226 229 232 236 245 252
201 175 178 177 182 183 188 188 184 193 181 172 166 191 189 216 213 185 185 183 206 180 178 165 130 151 165 177 174 195 182 135 194 193 222 232 238 249 242 234 230 223 217 217 213 210 210 213 216 221 229 240 252 264
158 170 183 200 200 195 201 197 186 190 174 189 184 212 202 217 196 84 179 161 174 189 163 137 119 151 186 193 191 110 163 211 204 218 225 263 265 248 229 217 214 209 204 199 196 196 195 200 204 214 228 242 261 277
132 160 167 234 224 214 205 214 201 202 184 178 223 180 37 82 328 62 98 115 135 165 151 153 171 210 214 186 154 200 166 203 228 213 246 265 246 228 220 213 204 194 184 178 179 179 184 181 187 202 241 274 289 293
130 121 73 154 208 221 207 210 201 187 195 174 209 162 164 351 154 166 119 118 162 163 211 169 176 213 100 229 233 173 203 215 32 347 159 186 208 191 189 182 172 165 159 155 162 165 167 173 188 222 257 275 288 299
75 93 135 217 174 182 179 197 182 156 82 64 118 121 158 177 194 195 168 172 165 210 141 279 339 194 199 176 195 299 39 39 89 146 157 153 163 159 151 158 156 157 156 155 150 155 160 166 181 235 257 312 316 338
284 269 252 237 161 152 159 171 79 99 81 91 102 105 160 180 200 230 249 228 209 195 173 161 209 197 195 39 11 24 40 296 226 144 139 141 152 149 149 155 152 147 144 148 152 155 155 157 150 153 144 155 172 5
184 243 239 208 189 167 128 84 91 97 125 113 117 109 102 76 147 163 131 174 164 138 61 33 44 24 31 358 330 332 328 267 206 163 158 154 154 150 152 151 149 152 157 157 157 158 157 154 161 162 160 158 61 352
208 232 229 203 158 114 100 89 74 82 101 97 105 95 58 80 58 62 71 47 65 36 53 35 28 12 11 1 6 22 12 169 176 205 230 178 169 165 162 160 161 163 164 161 160 161 163 162 171 172 166 166 299 318
194 203 169 163 107 83 81 62 86 100 101 101 82 69 55 40 24 23 23 57 51 23 2 349 350 358 8 21 32 47 107 182 260 260 207 185 177 173 173 171 167 165 160 159 159 168 172 173 177 177 172 181 281 328
118 125 89 69 92 58 46 71 78 47 80 20 77 75 39 34 20 44 73 64 59 358 354 1 5 9 18 34 52 52 53 79 160 156 148 155 163 164 165 159 156 164 170 170 169 175 180 181 185 178 185 255 292 314
98 62 40 44 32 56 50 40 55 71 73 43 56 94 31 330 357 67 75 50 1 6 16 18 10 11 16 19 36 63 94 106 124 137 136 150 158 153 153 161 164 168 175 177 181 188 184 179 183 198 232 260 273 284
88 12 21 11 18 21 35 23 11 50 61 2 72 50 15 348 67 51 52 359 1 10 12 15 14 12 4 1 50 104 115 110 115 128 126 130 144 153 162 168 176 185 190 193 196 194 188 195 213 234 251 269 281 294
68 10 35 349 6 35 351 40 31 27 17 58 33 340 356 46 59 45 353 348 357 351 354 2 11 33 47 64 94 111 113 118 123 126 137 148 155 166 184 198 197 198 210 207 200 205 216 231 251 264 271 283 296 303
53 347 8 25 0 329 55 41 40 45 48 27 353 354 24 61 51 344 346 352 347 352 9 27 43 63 69 78 92 104 104 109 115 143 167 185 200 218 225 229 234 238 227 220 217 224 237 253 265 274 281 286 295 301
67 26 28 340 30 31 66 48 36 33 8 348 307 33 70 39 339 333 332 341 356 31 60 51 61 72 78 84 80 92 112 105 132 228 198 208 231 244 249 247 242 236 232 233 240 249 256 264 275 284 290 297 302 303
31 354 354 0 64 53 41 28 43 25 352 6 48 68 75 32 10 17 22 26 39 56 58 60 64 62 64 69 66 88 86 66 48 327 283 179 118 77 116 264 278 270 263 264 269 275 280 285 289 292 296 299 303 307
2 1 3 28 46 36 7 25 42 58 71 85 99 109 95 71 55 54 53 54 55 55 53 53 47 48 47 45 45 49 58 61 65 100 175 207 256 279 277 275 276 278 280 281 283 284 286 288 290 292 295 298 299 300
353 351 52 49 76 41 57 83 86 84 87 98 114 112 105 96 55 42 47 54 57 58 55 48 41 35 33 39 61 61 38 25 12 348 319 302 298 294 292 291 290 289 289 289 290 290 290 290 291 293 294 296 298 300
6 27 35 63 45 47 51 56 72 86 93 73 68 100 95 85 72 24 21 33 40 43 40 34 28 29 30 27 7 321 319 316 316 312 307 303 300 299 299 297 296 294 293 291 289 288 287 289 291 293 295 296 298 299
14 28 48 71 58 43 9 20 109 107 86 91 77 85 80 78 93 45 31 20 15 13 12 11 10 2 332 327 315 292 287 291 295 293 290 289 288 288 290 295 292 289 290 292 292 293 293 294 294 294 295 296 297 299